Location: Unspecified
(43.4680°N, 87.1740°E)
Time: 05:31:18
(UTC+00:00)

USA 234 - Pass Details

Date: 17 April 2021
Orbit: 1102 x 1105 km, 123.0° (Epoch: 18 April)

Event Time Altitude Azimuth Distance (km) Brightness Sun altitude
Rises 19:56:37 0° 50° (NE) 3,926 7.2 -30.6°
Reaches altitude 10° 19:59:07 10° 52° (NE) 2,966 6.3 -30.4°
Maximum altitude 20:05:40 74° 137° (SE) 1,145 3.2 -29.8°
Enters shadow 20:05:58 73° 160° (SSE) 1,152 3.1 -29.7°
